Погода в Маслях

Россия / Курганская область     55°12′22″N   63°48′11″E
темп.,
°C
ветер,
м/с
пор.,
м/с
влажн.,
%
обл.,
%
осадки,
мм/ч
давл.,
гПа
погр.,
м
14 июня, пн
пн1423:00+17ююв33535 0.0 102327
02:00+16ю33533 0.0 102325
05:00+15ю33575 0.0 102434
08:00+20ююз4647100 0.0 1024241
11:00+25юз463874 0.0 1023716
14:00+28юз443027 0.0 10222149
17:00+28юз353052 0.0 10212567
20:00+24юз225180 0.0 102011
15 июня, вт
вт1523:00+19ю3352100 0.0 102021
02:00+18ююз464960 0.0 101985
05:00+16юз48585 0.0 1019112
08:00+22юз5851100 0.0 1018253
11:00+27юз683769 0.0 1017836
14:00+29зюз673218 0.0 10162003
17:00+28зюз574295 0.0 10151089
20:00+24зсз496164 0.0 1015237
16 июня, ср
ср1623:00+20зсз376861 0.0 1015120
02:00+17з22817 0.0 101514
05:00+17зсз368480 0.0 1016120
08:00+22з3761100 0.0 1015355
11:00+25зюз245694 0.0 1015943
14:00+29з463926 0.0 10131904
17:00+30зсз46385 0.0 10122085
20:00+22зсз4960100 0.3 1012163
17 июня, чт
чт1723:00+19зюз33585 0.3 101234
02:00+17з227311 0.0 101114
05:00+17ююз33815 0.1 101044
08:00+23юз476159 0.0 1008282
11:00+29юз7103952 0.0 10061019
14:00+29юз5842100 0.0 10041000
17:00+28сз7851100 0.0 1002901
20:00+19сз71387100 0.9 1005625
18 июня, пт
пт1823:00+16с61384100 1.2 1007618
02:00+13с8147281 0.0 1008541
05:00+10с8146744 0.0 1011650
08:00+11с9115899 0.0 1012879
11:00+14с912424 0.0 10131529
14:00+16с1012375 0.0 10142111
17:00+17с8123342 0.0 10142958
20:00+15с5104830 0.0 1015495